• En España
  • Lista de países
  • Para 7 días
  • Temperatura del agua
  • Mapa Satelital
  • El tiempo en el mapa
  • Informadores
  • user-avatar
    Iniciar sesión

    Tiempo cada hora Turny

    Hoy, 21 Julio, Sábado

    Tiempo Temperatura Precipitaciones Viento Presión Humedad
    00:00 +19°C° 0,1 mm 3 mps 736 mmHg 97%
    01:00 +19°C° 0,1 mm 3 mps 736 mmHg 98%
    02:00 +19°C° 0 mm 3 mps 736 mmHg 98%
    03:00 +19°C° 0,2 mm 3 mps 736 mmHg 98%
    04:00 +19°C° 0,2 mm 3 mps 736 mmHg 98%
    05:00 +20°C° 0,2 mm 3 mps 737 mmHg 97%
    06:00 +20°C° 0 mm 3 mps 737 mmHg 96%
    07:00 +21°C° 0 mm 3 mps 737 mmHg 94%
    08:00 +21°C° 0 mm 3 mps 737 mmHg 92%
    09:00 +22°C° 0,2 mm 3 mps 737 mmHg 88%
    10:00 +24°C° 0,2 mm 3 mps 737 mmHg 84%
    11:00 +25°C° 0,2 mm 3 mps 737 mmHg 80%
    12:00 +26°C° 0,5 mm 3 mps 737 mmHg 76%
    13:00 +27°C° 0,5 mm 3 mps 737 mmHg 72%
    14:00 +28°C° 0,5 mm 4 mps 738 mmHg 68%
    15:00 +27°C° 1,1 mm 3 mps 738 mmHg 71%
    16:00 +27°C° 1,1 mm 3 mps 738 mmHg 75%
    17:00 +26°C° 1,1 mm 3 mps 738 mmHg 79%
    18:00 +25°C° 1 mm 2 mps 738 mmHg 84%
    19:00 +24°C° 1 mm 2 mps 738 mmHg 88%
    20:00 +21°C° 1 mm 2 mps 738 mmHg 92%
    21:00 +21°C° 0,7 mm 2 mps 738 mmHg 94%
    22:00 +20°C° 0,7 mm 2 mps 738 mmHg 95%
    23:00 +20°C° 0,7 mm 2 mps 738 mmHg 96%

    Mañana, 22 Julio, Domingo

    Tiempo Temperatura Precipitaciones Viento Presión Humedad
    00:00 +20°C° 0,1 mm 2 mps 738 mmHg 96%
    01:00 +19°C° 0,1 mm 2 mps 738 mmHg 97%
    02:00 +19°C° 0,1 mm 2 mps 739 mmHg 97%
    03:00 +19°C° 0 mm 2 mps 739 mmHg 97%
    04:00 +19°C° 0 mm 2 mps 739 mmHg 97%
    05:00 +19°C° 0 mm 2 mps 739 mmHg 97%
    06:00 +20°C° 0,1 mm 2 mps 739 mmHg 96%
    07:00 +20°C° 0,1 mm 2 mps 739 mmHg 95%
    08:00 +21°C° 0,1 mm 3 mps 740 mmHg 93%
    09:00 +21°C° 0,3 mm 3 mps 740 mmHg 91%
    10:00 +21°C° 0,3 mm 3 mps 740 mmHg 89%
    11:00 +21°C° 0,3 mm 3 mps 740 mmHg 87%
    12:00 +21°C° 0,1 mm 3 mps 740 mmHg 86%
    13:00 +21°C° 0,1 mm 3 mps 740 mmHg 84%
    14:00 +22°C° 0,1 mm 3 mps 740 mmHg 82%
    15:00 +21°C° 0 mm 3 mps 740 mmHg 82%
    16:00 +21°C° 0 mm 3 mps 740 mmHg 82%
    17:00 +21°C° 0 mm 3 mps 740 mmHg 82%
    18:00 +21°C° 0 mm 2 mps 740 mmHg 85%
    19:00 +20°C° 0 mm 2 mps 741 mmHg 88%
    20:00 +20°C° 0 mm 2 mps 741 mmHg 91%
    21:00 +19°C° 0 mm 2 mps 741 mmHg 92%
    22:00 +19°C° 0 mm 2 mps 741 mmHg 92%
    23:00 +19°C° 0 mm 2 mps 741 mmHg 93%

    Pasado mañana, 23 Julio, Lunes

    Tiempo Temperatura Precipitaciones Viento Presión Humedad
    00:00 +19°C° 0 mm 2 mps 741 mmHg 94%
    01:00 +18°C° 0 mm 2 mps 741 mmHg 94%
    02:00 +18°C° 0 mm 2 mps 741 mmHg 95%
    03:00 +18°C° 0 mm 2 mps 741 mmHg 95%
    04:00 +18°C° 0 mm 2 mps 741 mmHg 95%
    05:00 +18°C° 0 mm 2 mps 741 mmHg 95%
    06:00 +19°C° 0 mm 3 mps 742 mmHg 91%
    07:00 +20°C° 0 mm 3 mps 742 mmHg 86%
    08:00 +21°C° 0 mm 3 mps 742 mmHg 81%
    09:00 +22°C° 0,1 mm 3 mps 742 mmHg 74%
    10:00 +24°C° 0,1 mm 3 mps 742 mmHg 67%
    11:00 +26°C° 0,1 mm 4 mps 742 mmHg 60%
    12:00 +26°C° 0,1 mm 4 mps 742 mmHg 59%
    13:00 +26°C° 0,1 mm 4 mps 741 mmHg 58%
    14:00 +26°C° 0,1 mm 3 mps 741 mmHg 56%
    15:00 +26°C° 0,1 mm 4 mps 741 mmHg 59%
    16:00 +25°C° 0,1 mm 4 mps 741 mmHg 61%
    17:00 +25°C° 0,1 mm 4 mps 741 mmHg 64%
    18:00 +22°C° 0 mm 3 mps 742 mmHg 71%
    19:00 +21°C° 0 mm 3 mps 742 mmHg 78%
    20:00 +19°C° 0 mm 2 mps 742 mmHg 85%
    21:00 +18°C° 0 mm 2 mps 742 mmHg 88%
    22:00 +17°C° 0 mm 2 mps 742 mmHg 92%
    23:00 +16°C° 0 mm 2 mps 742 mmHg 95%

    24 Julio, Martes

    Tiempo Temperatura Precipitaciones Viento Presión Humedad
    00:00 +16°C° 0 mm 2 mps 742 mmHg 96%
    01:00 +16°C° 0 mm 2 mps 742 mmHg 97%
    02:00 +15°C° 0 mm 2 mps 742 mmHg 97%
    03:00 +15°C° 0 mm 2 mps 742 mmHg 95%
    04:00 +15°C° 0 mm 2 mps 742 mmHg 93%
    05:00 +16°C° 0 mm 3 mps 742 mmHg 91%
    06:00 +16°C° 0 mm 3 mps 742 mmHg 87%
    07:00 +17°C° 0 mm 3 mps 742 mmHg 83%
    08:00 +18°C° 0 mm 3 mps 743 mmHg 79%
    09:00 +18°C° 0,2 mm 3 mps 743 mmHg 80%
    10:00 +18°C° 0,2 mm 3 mps 743 mmHg 82%
    11:00 +18°C° 0,2 mm 3 mps 743 mmHg 84%
    12:00 +19°C° 0,1 mm 3 mps 743 mmHg 84%
    13:00 +19°C° 0,1 mm 3 mps 743 mmHg 83%
    14:00 +19°C° 0,1 mm 3 mps 743 mmHg 83%
    15:00 +19°C° 0,2 mm 3 mps 743 mmHg 85%
    16:00 +19°C° 0,2 mm 2 mps 743 mmHg 87%
    17:00 +20°C° 0,2 mm 2 mps 743 mmHg 89%
    18:00 +19°C° 0,5 mm 2 mps 743 mmHg 92%
    19:00 +19°C° 0,5 mm 2 mps 743 mmHg 94%
    20:00 +19°C° 0,5 mm 1 mps 743 mmHg 97%
    21:00 +19°C° 1,3 mm 1 mps 743 mmHg 97%
    22:00 +19°C° 1,3 mm 1 mps 743 mmHg 98%
    23:00 +19°C° 1,3 mm 1 mps 743 mmHg 98%

    25 Julio, Miércoles

    Tiempo Temperatura Precipitaciones Viento Presión Humedad
    00:00 +19°C° 0,8 mm 1 mps 743 mmHg 98%
    01:00 +19°C° 0,8 mm 1 mps 743 mmHg 98%
    02:00 +19°C° 0,8 mm 1 mps 743 mmHg 98%
    03:00 +18°C° 0,1 mm 2 mps 743 mmHg 98%
    04:00 +18°C° 0,1 mm 2 mps 743 mmHg 98%
    05:00 +18°C° 0,1 mm 2 mps 743 mmHg 98%
    06:00 +19°C° 0,2 mm 3 mps 744 mmHg 97%
    07:00 +20°C° 0,2 mm 3 mps 744 mmHg 95%
    08:00 +20°C° 0,2 mm 3 mps 745 mmHg 94%
    09:00 +21°C° 0,1 mm 3 mps 745 mmHg 91%
    10:00 +22°C° 0,1 mm 3 mps 745 mmHg 88%
    11:00 +22°C° 0,1 mm 3 mps 745 mmHg 86%
    12:00 +24°C° 0,3 mm 3 mps 745 mmHg 84%
    13:00 +24°C° 0,3 mm 3 mps 745 mmHg 82%
    14:00 +24°C° 0,3 mm 3 mps 745 mmHg 80%
    15:00 +25°C° 0,1 mm 3 mps 745 mmHg 76%
    16:00 +25°C° 0,1 mm 3 mps 746 mmHg 72%
    17:00 +26°C° 0,1 mm 3 mps 746 mmHg 67%
    18:00 +25°C° 0 mm 3 mps 746 mmHg 73%
    19:00 +23°C° 0 mm 2 mps 746 mmHg 79%
    20:00 +21°C° 0 mm 2 mps 746 mmHg 85%
    21:00 +20°C° 0 mm 2 mps 746 mmHg 87%
    22:00 +19°C° 0 mm 2 mps 746 mmHg 89%
    23:00 +19°C° 0 mm 2 mps 747 mmHg 91%

    26 Julio, Jueves

    Tiempo Temperatura Precipitaciones Viento Presión Humedad
    00:00 +18°C° 0 mm 2 mps 747 mmHg 91%
    01:00 +18°C° 0 mm 2 mps 747 mmHg 91%
    02:00 +17°C° 0 mm 2 mps 747 mmHg 91%
    03:00 +17°C° 0 mm 2 mps 747 mmHg 89%
    04:00 +17°C° 0 mm 2 mps 747 mmHg 86%
    05:00 +18°C° 0 mm 2 mps 748 mmHg 84%
    06:00 +19°C° 0 mm 2 mps 748 mmHg 78%
    07:00 +21°C° 0 mm 3 mps 748 mmHg 73%
    08:00 +24°C° 0 mm 3 mps 748 mmHg 67%
    09:00 +26°C° 0 mm 3 mps 748 mmHg 61%
    10:00 +27°C° 0 mm 4 mps 748 mmHg 54%
    11:00 +29°C° 0 mm 4 mps 748 mmHg 48%
    12:00 +29°C° 0 mm 4 mps 748 mmHg 47%
    13:00 +29°C° 0 mm 4 mps 748 mmHg 46%
    14:00 +30°C° 0 mm 4 mps 748 mmHg 44%
    15:00 +29°C° 0 mm 4 mps 748 mmHg 48%
    16:00 +29°C° 0 mm 3 mps 748 mmHg 51%
    17:00 +29°C° 0 mm 3 mps 748 mmHg 55%
    18:00 +27°C° 0 mm 2 mps 748 mmHg 63%
    19:00 +25°C° 0 mm 2 mps 748 mmHg 71%
    20:00 +23°C° 0 mm 2 mps 748 mmHg 79%
    21:00 +21°C° 0 mm 2 mps 749 mmHg 82%
    22:00 +20°C° 0 mm 2 mps 749 mmHg 85%
    23:00 +20°C° 0 mm 2 mps 749 mmHg 87%
    Mostrar más